Radiation Dose at Monitoring Post of Fukushima Daini Nuclear Power Station
Date,Time,MP-1(microSv/h),MP-2(microSv/h),MP-3(microSv/h),MP-4(microSv/h),MP-5(microSv/h),MP-6(microSv/h),MP-7(microSv/h),Wind Direction,Wind Velocity(m/s),Rain
2015/09/18,00:00,0.445,0.268,0.457,0.425,0.433,0.210,0.183,north,9.0,Yes
2015/09/18,00:10,0.448,0.267,0.457,0.424,0.433,0.209,0.184,north-northwest,4.7,Yes
2015/09/18,00:20,0.448,0.269,0.458,0.427,0.434,0.212,0.184,north,6.1,Yes
2015/09/18,00:30,0.449,0.269,0.461,0.429,0.434,0.211,0.184,north-northeast,7.8,Yes
2015/09/18,00:40,0.452,0.270,0.463,0.434,0.435,0.212,0.187,north,8.0,Yes
2015/09/18,00:50,0.453,0.271,0.469,0.437,0.441,0.214,0.187,north,9.7,Yes
2015/09/18,01:00,0.450,0.268,0.464,0.429,0.433,0.211,0.184,north,8.9,Yes
2015/09/18,01:10,0.448,0.269,0.464,0.430,0.436,0.211,0.186,north,10.1,Yes
2015/09/18,01:20,0.453,0.270,0.460,0.427,0.432,0.211,0.184,north-northwest,9.5,Yes
2015/09/18,01:30,0.450,0.271,0.468,0.433,0.439,0.213,0.185,north-northwest,9.7,Yes
2015/09/18,01:40,0.456,0.269,0.463,0.434,0.435,0.211,0.185,north-northwest,10.5,Yes
2015/09/18,01:50,0.454,0.272,0.471,0.438,0.440,0.213,0.185,north-northwest,8.6,Yes
2015/09/18,02:00,0.456,0.268,0.470,0.437,0.436,0.212,0.184,north-northwest,10.3,Yes
2015/09/18,02:10,0.455,0.270,0.474,0.440,0.440,0.211,0.184,north-northwest,10.1,Yes
2015/09/18,02:20,0.457,0.269,0.475,0.440,0.437,0.212,0.184,north-northwest,10.1,Yes
2015/09/18,02:30,0.457,0.270,0.473,0.441,0.441,0.209,0.184,north-northwest,10.7,Yes
2015/09/18,02:40,0.458,0.267,0.477,0.441,0.438,0.211,0.183,northwest,9.7,No
2015/09/18,02:50,0.457,0.267,0.476,0.440,0.441,0.210,0.184,north-northwest,8.9,No
2015/09/18,03:00,0.458,0.267,0.477,0.443,0.438,0.212,0.183,northwest,9.4,No
2015/09/18,03:10,0.460,0.267,0.473,0.441,0.438,0.210,0.184,northwest,8.0,No
2015/09/18,03:20,0.456,0.268,0.479,0.442,0.439,0.212,0.183,northwest,8.8,No
2015/09/18,03:30,0.461,0.267,0.475,0.439,0.437,0.211,0.184,northwest,8.1,No
2015/09/18,03:40,0.458,0.268,0.478,0.444,0.439,0.211,0.183,northwest,8.6,No
2015/09/18,03:50,0.459,0.266,0.477,0.440,0.438,0.212,0.183,northwest,7.3,No
2015/09/18,04:00,0.460,0.269,0.477,0.445,0.443,0.212,0.183,north-northwest,6.9,Yes
2015/09/18,04:10,0.458,0.267,0.482,0.443,0.436,0.213,0.182,north-northwest,6.6,Yes
2015/09/18,04:20,0.464,0.268,0.476,0.443,0.441,0.211,0.185,north-northwest,6.1,Yes
2015/09/18,04:30,0.458,0.267,0.482,0.445,0.438,0.212,0.182,northwest,6.1,Yes
2015/09/18,04:40,0.462,0.267,0.478,0.442,0.438,0.212,0.185,northwest,6.5,Yes
2015/09/18,04:50,0.462,0.269,0.482,0.446,0.441,0.213,0.183,north-northwest,6.2,Yes
2015/09/18,05:00,0.462,0.267,0.481,0.441,0.437,0.212,0.184,northwest,5.3,Yes
2015/09/18,05:10,0.466,0.269,0.478,0.444,0.441,0.212,0.184,north-northwest,5.0,Yes
2015/09/18,05:20,0.461,0.268,0.482,0.443,0.437,0.214,0.185,north-northwest,4.5,Yes
2015/09/18,05:30,0.465,0.270,0.478,0.444,0.443,0.213,0.186,north-northwest,4.2,Yes
2015/09/18,05:40,0.461,0.270,0.483,0.446,0.437,0.217,0.185,north-northwest,4.0,No
2015/09/18,05:50,0.465,0.271,0.480,0.441,0.440,0.215,0.185,north-northwest,3.6,No
2015/09/18,06:00,0.464,0.270,0.483,0.446,0.440,0.215,0.185,north-northwest,3.7,Yes
2015/09/18,06:10,0.462,0.269,0.482,0.443,0.439,0.215,0.185,north-northwest,3.1,Yes
2015/09/18,06:20,0.464,0.270,0.478,0.446,0.442,0.215,0.184,north,3.2,Yes
2015/09/18,06:30,0.460,0.269,0.483,0.444,0.437,0.215,0.185,north,3.1,No
2015/09/18,06:40,0.466,0.270,0.479,0.443,0.441,0.214,0.184,north,3.3,No
2015/09/18,06:50,0.465,0.268,0.483,0.446,0.436,0.216,0.186,north,2.8,No
2015/09/18,07:00,0.463,0.269,0.481,0.442,0.441,0.215,0.184,north,1.9,No
2015/09/18,07:10,0.465,0.269,0.477,0.445,0.441,0.214,0.183,north,2.0,No
2015/09/18,07:20,0.459,0.268,0.484,0.444,0.437,0.215,0.185,north,1.3,No
2015/09/18,07:30,0.465,0.270,0.479,0.441,0.443,0.213,0.183,-,CALM,No
2015/09/18,07:40,0.463,0.270,0.482,0.447,0.441,0.214,0.183,west-southwest,1.3,No
2015/09/18,07:50,0.461,0.268,0.482,0.442,0.440,0.214,0.184,southwest,1.5,No
2015/09/18,08:00,0.466,0.271,0.476,0.444,0.443,0.213,0.183,south,1.7,Yes
2015/09/18,08:10,0.464,0.268,0.484,0.447,0.437,0.215,0.185,south,1.5,No
2015/09/18,08:20,0.462,0.269,0.479,0.442,0.442,0.214,0.185,east-northeast,1.4,Yes
2015/09/18,08:30,0.466,0.272,0.480,0.446,0.441,0.215,0.186,north-northeast,2.7,Yes
2015/09/18,08:40,0.463,0.269,0.486,0.447,0.441,0.216,0.187,north,2.8,Yes
2015/09/18,08:50,0.466,0.272,0.479,0.443,0.445,0.216,0.185,north-northeast,4.4,No
2015/09/18,09:00,0.468,0.271,0.485,0.448,0.440,0.217,0.188,north,3.9,No
2015/09/18,09:10,0.462,0.270,0.483,0.445,0.444,0.215,0.185,west-northwest,3.1,No
2015/09/18,09:20,0.469,0.271,0.482,0.444,0.443,0.216,0.186,northwest,2.8,No
2015/09/18,09:30,0.465,0.270,0.486,0.448,0.440,0.216,0.187,north-northwest,1.8,No
2015/09/18,09:40,0.464,0.271,0.483,0.444,0.445,0.215,0.185,north-northeast,0.7,No
2015/09/18,09:50,0.468,0.273,0.482,0.449,0.443,0.217,0.187,east,1.5,No
2015/09/18,10:00,0.464,0.269,0.483,0.447,0.437,0.216,0.187,east-southeast,1.4,No
2015/09/18,10:10,0.463,0.270,0.480,0.442,0.443,0.215,0.184,east,1.9,No
2015/09/18,10:20,0.470,0.272,0.483,0.446,0.441,0.216,0.186,east,2.5,No
2015/09/18,10:30,0.465,0.270,0.485,0.449,0.438,0.217,0.187,east,1.6,No
2015/09/18,10:40,0.461,0.268,0.480,0.443,0.444,0.216,0.185,east-northeast,1.4,No
2015/09/18,10:50,0.468,0.272,0.482,0.444,0.445,0.215,0.184,east,2.4,No
2015/09/18,11:00,0.465,0.273,0.486,0.448,0.441,0.217,0.184,east-northeast,2.0,No
2015/09/18,11:10,0.463,0.269,0.482,0.446,0.437,0.217,0.187,northeast,2.4,No
2015/09/18,11:20,0.470,0.271,0.482,0.443,0.442,0.215,0.186,east-northeast,2.0,No
2015/09/18,11:30,0.468,0.273,0.487,0.450,0.445,0.217,0.185,north-northeast,2.2,No
2015/09/18,11:40,0.463,0.270,0.483,0.449,0.441,0.216,0.185,east-northeast,1.8,No
2015/09/18,11:50,0.463,0.271,0.479,0.446,0.437,0.218,0.185,northeast,1.1,No
2015/09/18,12:00,0.470,0.268,0.482,0.443,0.437,0.217,0.186,east-northeast,1.1,No
2015/09/18,12:10,0.464,0.270,0.486,0.442,0.445,0.216,0.188,east-southeast,1.6,No
2015/09/18,12:20,0.463,0.274,0.483,0.450,0.445,0.218,0.188,southeast,1.7,No
2015/09/18,12:30,0.469,0.272,0.480,0.448,0.441,0.218,0.186,southeast,1.8,No
2015/09/18,12:40,0.468,0.270,0.487,0.445,0.439,0.216,0.187,southeast,1.6,No
2015/09/18,12:50,0.465,0.273,0.484,0.450,0.448,0.216,0.187,south-southeast,2.1,No
2015/09/18,13:00,0.466,0.273,0.481,0.452,0.445,0.217,0.186,south-southeast,2.6,Yes
2015/09/18,13:10,0.471,0.270,0.489,0.447,0.439,0.216,0.187,south,2.2,Yes
2015/09/18,13:20,0.468,0.272,0.488,0.447,0.445,0.217,0.188,south,2.6,No
2015/09/18,13:30,0.465,0.274,0.483,0.452,0.445,0.217,0.188,south-southwest,3.0,No
2015/09/18,13:40,0.471,0.271,0.487,0.449,0.442,0.218,0.186,south,1.7,No
2015/09/18,13:50,0.468,0.269,0.487,0.445,0.439,0.217,0.189,south,2.2,Yes
2015/09/18,14:00,0.462,0.272,0.483,0.450,0.447,0.217,0.187,south,1.5,Yes
2015/09/18,14:10,0.472,0.273,0.487,0.450,0.443,0.218,0.186,south,1.6,Yes
2015/09/18,14:20,0.471,0.270,0.491,0.447,0.442,0.217,0.188,south-southeast,1.5,Yes
2015/09/18,14:30,0.465,0.273,0.485,0.453,0.449,0.219,0.188,south-southeast,1.9,Yes
2015/09/18,14:40,0.472,0.272,0.487,0.450,0.443,0.218,0.188,southeast,1.9,No
2015/09/18,14:50,0.469,0.271,0.490,0.446,0.442,0.216,0.188,south-southeast,3.0,No
2015/09/18,15:00,0.464,0.274,0.482,0.453,0.447,0.218,0.186,south-southeast,3.2,Yes
2015/09/18,15:10,0.470,0.272,0.488,0.450,0.443,0.218,0.187,south-southeast,3.4,Yes
2015/09/18,15:20,0.469,0.271,0.488,0.446,0.445,0.217,0.188,south-southeast,4.2,No
2015/09/18,15:30,0.464,0.273,0.481,0.451,0.448,0.217,0.187,south-southeast,3.9,No
2015/09/18,15:40,0.470,0.272,0.488,0.448,0.441,0.216,0.188,south-southeast,3.1,No
2015/09/18,15:50,0.468,0.270,0.486,0.445,0.446,0.217,0.188,south-southeast,2.7,No
2015/09/18,16:00,0.464,0.273,0.484,0.451,0.445,0.218,0.186,south,2.8,No
2015/09/18,16:10,0.471,0.272,0.487,0.447,0.440,0.216,0.187,south,3.3,No
2015/09/18,16:20,0.468,0.270,0.487,0.445,0.442,0.217,0.188,south,3.4,No
2015/09/18,16:30,0.463,0.273,0.481,0.451,0.446,0.218,0.186,south,3.9,No
2015/09/18,16:40,0.472,0.271,0.489,0.447,0.440,0.217,0.187,south-southwest,4.1,Yes
2015/09/18,16:50,0.467,0.270,0.487,0.447,0.443,0.218,0.187,south,3.8,Yes
2015/09/18,17:00,0.466,0.272,0.482,0.452,0.447,0.217,0.185,south-southeast,4.1,No
2015/09/18,17:10,0.472,0.270,0.489,0.447,0.440,0.217,0.188,south,4.3,Yes
2015/09/18,17:20,0.468,0.272,0.487,0.449,0.446,0.218,0.187,south,2.7,Yes
2015/09/18,17:30,0.467,0.274,0.483,0.452,0.443,0.217,0.187,south,4.2,Yes
2015/09/18,17:40,0.468,0.271,0.489,0.447,0.439,0.217,0.188,south,4.5,Yes
2015/09/18,17:50,0.464,0.274,0.484,0.451,0.445,0.218,0.186,south,4.4,Yes
2015/09/18,18:00,0.469,0.273,0.485,0.451,0.441,0.217,0.188,south,3.9,Yes
2015/09/18,18:10,0.471,0.271,0.488,0.445,0.444,0.219,0.187,south,3.5,No
2015/09/18,18:20,0.464,0.274,0.482,0.451,0.442,0.218,0.187,south,4.2,Yes
2015/09/18,18:30,0.468,0.273,0.487,0.448,0.440,0.217,0.187,south,3.9,No
2015/09/18,18:40,0.467,0.273,0.487,0.446,0.446,0.217,0.185,south,3.0,No
2015/09/18,18:50,0.463,0.274,0.481,0.449,0.443,0.216,0.186,south,3.1,Yes
2015/09/18,19:00,0.470,0.272,0.488,0.446,0.441,0.217,0.186,south,2.8,Yes
2015/09/18,19:10,0.465,0.273,0.487,0.448,0.445,0.217,0.187,south,2.6,Yes
2015/09/18,19:20,0.465,0.272,0.483,0.450,0.440,0.216,0.187,south,1.8,Yes
2015/09/18,19:30,0.470,0.270,0.489,0.446,0.443,0.217,0.187,south,1.2,No
2015/09/18,19:40,0.466,0.274,0.484,0.450,0.443,0.216,0.189,south,1.3,No
2015/09/18,19:50,0.467,0.272,0.485,0.448,0.439,0.216,0.188,south-southwest,1.5,No
2015/09/18,20:00,0.469,0.272,0.489,0.446,0.445,0.217,0.186,south,1.5,Yes
2015/09/18,20:10,0.463,0.273,0.482,0.450,0.440,0.216,0.187,west-northwest,0.5,Yes
2015/09/18,20:20,0.467,0.271,0.487,0.447,0.441,0.217,0.185,-,CALM,Yes
2015/09/18,20:30,0.467,0.272,0.487,0.445,0.443,0.216,0.186,-,CALM,No
2015/09/18,20:40,0.463,0.271,0.482,0.449,0.439,0.217,0.186,-,CALM,No
2015/09/18,20:50,0.468,0.270,0.488,0.445,0.444,0.217,0.185,-,CALM,No
2015/09/18,21:00,0.468,0.273,0.485,0.449,0.443,0.217,0.187,southwest,0.7,No
2015/09/18,21:10,0.463,0.271,0.484,0.447,0.439,0.217,0.185,southwest,1.4,No
2015/09/18,21:20,0.467,0.272,0.487,0.444,0.444,0.217,0.186,-,CALM,No
2015/09/18,21:30,0.463,0.273,0.484,0.450,0.440,0.216,0.186,-,CALM,No
2015/09/18,21:40,0.465,0.271,0.488,0.448,0.442,0.217,0.185,-,CALM,Yes
2015/09/18,21:50,0.468,0.273,0.488,0.447,0.444,0.216,0.186,north-northeast,0.7,No
2015/09/18,22:00,0.463,0.272,0.483,0.451,0.440,0.217,0.186,north-northeast,1.3,No
2015/09/18,22:10,0.468,0.272,0.490,0.446,0.447,0.217,0.186,north-northeast,1.6,No
2015/09/18,22:20,0.466,0.272,0.486,0.450,0.440,0.217,0.187,north-northeast,1.6,No
2015/09/18,22:30,0.464,0.271,0.483,0.448,0.442,0.218,0.186,north,1.6,No
2015/09/18,22:40,0.468,0.274,0.489,0.444,0.445,0.217,0.187,north,1.6,No
2015/09/18,22:50,0.464,0.271,0.483,0.452,0.441,0.217,0.185,north,1.8,No
2015/09/18,23:00,0.467,0.270,0.486,0.448,0.444,0.217,0.187,north-northwest,2.2,No
2015/09/18,23:10,0.471,0.274,0.487,0.447,0.442,0.217,0.187,north,2.1,No
2015/09/18,23:20,0.464,0.272,0.483,0.450,0.440,0.217,0.186,north-northeast,2.7,Yes
2015/09/18,23:30,0.468,0.274,0.489,0.447,0.445,0.216,0.188,north-northeast,3.0,Yes
2015/09/18,23:40,0.469,0.273,0.488,0.448,0.442,0.218,0.186,north,2.8,No
2015/09/18,23:50,0.465,0.270,0.481,0.450,0.444,0.217,0.188,north,3.3,Yes
